TimeEST,TemperatureF,Dew PointF,Humidity,Sea Level PressureIn,VisibilityMPH,Wind Direction,Wind SpeedMPH,Gust SpeedMPH,PrecipitationIn,Events,Conditions,WindDirDegrees,DateUTC
12:53 AM,30.0,24.1,79,29.96,10.0,ENE,10.4,-,N/A,,Overcast,70,2013-02-27 05:53:00
1:53 AM,30.0,25.0,82,29.96,10.0,ENE,5.8,-,N/A,,Overcast,60,2013-02-27 06:53:00
2:53 AM,28.9,24.1,82,29.95,10.0,ENE,11.5,-,N/A,,Overcast,60,2013-02-27 07:53:00
3:23 AM,28.4,24.8,86,29.89,10.0,ENE,9.2,-,N/A,,Overcast,70,2013-02-27 08:23:00
3:53 AM,28.9,24.1,82,29.92,10.0,NE,11.5,18.4,N/A,,Overcast,50,2013-02-27 08:53:00
4:53 AM,28.9,24.1,82,29.92,10.0,NE,8.1,-,N/A,,Overcast,50,2013-02-27 09:53:00
5:53 AM,28.0,24.1,85,29.91,10.0,NE,6.9,-,N/A,,Overcast,50,2013-02-27 10:53:00
6:53 AM,28.0,23.0,81,29.91,10.0,NE,11.5,20.7,N/A,,Overcast,50,2013-02-27 11:53:00
7:53 AM,28.0,23.0,81,29.91,10.0,NE,13.8,-,N/A,,Overcast,50,2013-02-27 12:53:00
8:53 AM,28.9,24.1,82,29.91,10.0,ENE,12.7,23.0,N/A,,Overcast,60,2013-02-27 13:53:00
9:53 AM,28.9,25.0,85,29.90,10.0,ENE,10.4,-,N/A,,Overcast,60,2013-02-27 14:53:00
10:37 AM,30.2,24.8,80,29.85,10.0,NE,12.7,20.7,N/A,,Mostly Cloudy,50,2013-02-27 15:37:00
10:53 AM,30.9,25.0,79,29.89,10.0,ENE,13.8,-,N/A,,Scattered Clouds,60,2013-02-27 15:53:00
11:53 AM,33.1,25.0,72,29.88,10.0,ENE,15.0,24.2,N/A,,Clear,60,2013-02-27 16:53:00
12:53 PM,34.0,25.0,70,29.88,10.0,NE,16.1,27.6,N/A,,Scattered Clouds,50,2013-02-27 17:53:00
1:53 PM,34.0,25.0,70,29.88,10.0,NNE,13.8,-,N/A,,Partly Cloudy,30,2013-02-27 18:53:00
2:27 PM,33.8,24.8,70,29.84,10.0,NNE,20.7,26.5,N/A,,Mostly Cloudy,30,2013-02-27 19:27:00
2:53 PM,32.0,25.0,75,29.89,10.0,NNE,15.0,25.3,N/A,,Overcast,30,2013-02-27 19:53:00
3:53 PM,32.0,24.1,73,29.90,10.0,NNE,20.7,27.6,N/A,,Overcast,30,2013-02-27 20:53:00
4:22 PM,32.0,24.8,75,29.86,10.0,NNE,21.9,29.9,N/A,,Mostly Cloudy,30,2013-02-27 21:22:00
4:53 PM,32.0,24.1,73,29.91,10.0,NNE,21.9,28.8,N/A,,Overcast,30,2013-02-27 21:53:00
5:53 PM,30.9,24.1,76,29.93,10.0,NE,21.9,27.6,N/A,,Overcast,40,2013-02-27 22:53:00
6:53 PM,30.9,23.0,72,29.94,10.0,NNE,18.4,28.8,N/A,,Overcast,30,2013-02-27 23:53:00
7:31 PM,30.2,24.8,80,29.91,10.0,NNE,17.3,27.6,N/A,,Overcast,30,2013-02-28 00:31:00
7:53 PM,30.9,23.0,72,29.96,10.0,NNE,19.6,25.3,N/A,,Overcast,30,2013-02-28 00:53:00
8:53 PM,30.2,24.8,80,29.92,10.0,NE,16.1,27.6,N/A,,Overcast,40,2013-02-28 01:53:00
9:53 PM,30.9,23.0,72,29.97,10.0,NE,15.0,-,N/A,,Overcast,40,2013-02-28 02:53:00
10:53 PM,30.0,24.1,79,29.98,10.0,NNE,12.7,26.5,N/A,,Overcast,20,2013-02-28 03:53:00
11:53 PM,28.9,24.1,82,29.99,10.0,NNE,18.4,-,N/A,,Overcast,20,2013-02-28 04:53:00